M/tug Gulf 2 — TCA2452 — position and weather

sailwx.info

Track history (hours):
 
Tides and Currents Weather Stations Pressure Air Temp Water Temp Dewpoint Dewpoint Depression Visibility Wind Speed Wind Dir Waves Ship Positions

M/tug Gulf 2

Last reported at 2014-Nov-28 23:19 UTC. Time now 2014-Nov-29 00:06 UTC.
Position N 40°51' E 029°17'.

Length 23 m; draft 3.7 m.

Type: Tug. MMSI: 271002438.

Date/timePositionNaut miles runAvg speedWind from/ knotsBaromVisibWave heightAir tempDewpointWater temp
2014-Nov-28 23:19N 40°51' E 029°17'0 0.0
2014-Nov-28 22:31N 40°51' E 029°17'0 0.0
2014-Nov-28 21:25N 40°51' E 029°17'0 0.0
2014-Nov-28 20:31N 40°51' E 029°17'2 1.6
2014-Nov-28 19:33N 40°51' E 029°15'1 0.9
2014-Nov-28 18:34N 40°50' E 029°15'3 2.7
2014-Nov-28 17:34N 40°47' E 029°15'5 4.8
2014-Nov-28 16:33N 40°45' E 029°20'5 4.8
2014-Nov-28 15:33N 40°43' E 029°26'1 1.0
2014-Nov-28 14:33N 40°43' E 029°28'0 0.0
2014-Nov-28 13:32N 40°43' E 029°27'0 0.5
2014-Nov-28 12:33N 40°43' E 029°27'9 8.7
2014-Nov-28 11:33N 40°47' E 029°16'4 3.5
2014-Nov-28 10:24N 40°51' E 029°17'0 0.0
2014-Nov-28 09:30N 40°51' E 029°17'0 0.0
2014-Nov-28 08:30N 40°51' E 029°17'0 0.0
2014-Nov-28 07:30N 40°51' E 029°17'0 0.0
2014-Nov-28 06:30N 40°51' E 029°17'0 0.0
2014-Nov-28 05:30N 40°51' E 029°17'0 0.0
2014-Nov-28 04:30N 40°51' E 029°17'0 0.0
2014-Nov-28 03:30N 40°51' E 029°17'0 0.0
2014-Nov-28 02:30N 40°51' E 029°17'0 0.0
2014-Nov-28 01:30N 40°51' E 029°17'0 0.0
2014-Nov-28 00:18N 40°51' E 029°17'0 0.0
2014-Nov-27 23:30N 40°51' E 029°17'0 0.0
2014-Nov-27 22:30N 40°51' E 029°17'0 0.0
2014-Nov-27 21:30N 40°51' E 029°17'0 0.0
2014-Nov-27 20:30N 40°51' E 029°17'0 0.0
2014-Nov-27 19:30N 40°51' E 029°17'0 0.0
2014-Nov-27 18:24N 40°51' E 029°17'0 0.0
2014-Nov-27 17:30N 40°51' E 029°17'0 0.0
2014-Nov-27 16:18N 40°51' E 029°17'0 0.0
2014-Nov-27 15:34N 40°51' E 029°17'0 0.0
2014-Nov-27 14:34N 40°51' E 029°17'0 0.0
2014-Nov-27 13:34N 40°51' E 029°17'0 0.0
2014-Nov-27 12:33N 40°51' E 029°17'0 0.0
2014-Nov-27 11:33N 40°51' E 029°17'0 0.0
2014-Nov-27 10:34N 40°51' E 029°17'0 0.0
2014-Nov-27 09:33N 40°51' E 029°17'0 0.0
2014-Nov-27 08:34N 40°51' E 029°17'0 0.0
2014-Nov-27 07:30N 40°51' E 029°17'0 0.0
2014-Nov-27 06:30N 40°51' E 029°17'0 0.0
2014-Nov-27 05:33N 40°51' E 029°17'0 0.0
2014-Nov-27 04:30N 40°51' E 029°17'0 0.0
2014-Nov-27 03:30N 40°51' E 029°17'0 0.0
2014-Nov-27 02:30N 40°51' E 029°17'0 0.0
2014-Nov-27 01:30N 40°51' E 029°17'0 0.0
2014-Nov-27 00:30N 40°51' E 029°17'0 0.0
2014-Nov-26 23:30N 40°51' E 029°17'0 0.0
2014-Nov-26 22:30N 40°51' E 029°17'0 0.0
2014-Nov-26 21:30N 40°51' E 029°17'0 0.0
2014-Nov-26 20:24N 40°51' E 029°17'0 0.0
2014-Nov-26 19:30N 40°51' E 029°17'0 0.0
2014-Nov-26 18:33N 40°51' E 029°17'0 0.0
2014-Nov-26 17:27N 40°51' E 029°17'0 0.0
2014-Nov-26 16:33N 40°51' E 029°17'0 0.0
2014-Nov-26 15:24N 40°51' E 029°17'0 0.0
2014-Nov-26 14:30N 40°51' E 029°17'0 0.0
2014-Nov-26 13:24N 40°51' E 029°17'0 0.0
2014-Nov-26 12:30N 40°51' E 029°17'0 0.0
2014-Nov-26 11:25N 40°51' E 029°17'0 0.0
2014-Nov-26 10:30N 40°51' E 029°17'0 0.0
2014-Nov-26 09:25N 40°51' E 029°17'0 0.0
2014-Nov-26 08:24N 40°51' E 029°17'0 0.0
2014-Nov-26 07:31N 40°51' E 029°17'0 0.0
2014-Nov-26 06:31N 40°51' E 029°17'0 0.0
2014-Nov-26 05:31N 40°51' E 029°17'0 0.0
2014-Nov-26 04:25N 40°51' E 029°17'0 0.0
2014-Nov-26 03:31N 40°51' E 029°17'0 0.0
2014-Nov-26 02:25N 40°51' E 029°17'0 0.0
2014-Nov-26 01:25N 40°51' E 029°17'0 0.0
2014-Nov-26 00:25N 40°51' E 029°17'0 0.0
2014-Nov-25 23:31N 40°51' E 029°17'0 0.0
2014-Nov-25 22:31N 40°51' E 029°17'0 0.0
2014-Nov-25 21:31N 40°51' E 029°17'0 0.0
2014-Nov-25 20:31N 40°51' E 029°17'0 0.0
2014-Nov-25 19:31N 40°51' E 029°17'0 0.0
2014-Nov-25 18:19N 40°51' E 029°17'0 0.0
2014-Nov-25 17:25N 40°51' E 029°17'0 0.0
2014-Nov-25 16:31N 40°51' E 029°17'0 0.0
2014-Nov-25 15:31N 40°51' E 029°17'0 0.0
2014-Nov-25 14:31N 40°51' E 029°17'0 0.0
2014-Nov-25 13:25N 40°51' E 029°17'0 0.0
2014-Nov-25 12:25N 40°51' E 029°17'0 0.0
2014-Nov-25 11:31N 40°51' E 029°17'0 0.0
2014-Nov-25 10:25N 40°51' E 029°17'0 0.0
2014-Nov-25 09:25N 40°51' E 029°17'0 0.0
2014-Nov-25 08:31N 40°51' E 029°17'0 0.0
2014-Nov-25 07:31N 40°51' E 029°17'0 0.0
2014-Nov-25 06:25N 40°51' E 029°17'0 0.0
2014-Nov-25 05:25N 40°51' E 029°17'0 0.0
2014-Nov-25 04:31N 40°51' E 029°17'0 0.0
2014-Nov-25 03:31N 40°51' E 029°17'0 0.0
2014-Nov-25 02:25N 40°51' E 029°17'0 0.0
2014-Nov-25 01:31N 40°51' E 029°17'0 0.0
2014-Nov-25 00:31N 40°51' E 029°17'0 0.0
2014-Nov-24 23:19N 40°51' E 029°17'0 0.0
2014-Nov-24 22:25N 40°51' E 029°17'0 0.0
2014-Nov-24 21:31N 40°51' E 029°17'0 0.0
2014-Nov-24 20:31N 40°51' E 029°17'0 0.0
2014-Nov-24 19:31N 40°51' E 029°17'0 0.0
2014-Nov-24 18:25N 40°51' E 029°17'0 0.0
2014-Nov-24 17:31N 40°51' E 029°17'0 0.0
2014-Nov-24 16:19N 40°51' E 029°17'0 0.0
2014-Nov-24 15:31N 40°51' E 029°17'0 0.0
2014-Nov-24 14:25N 40°51' E 029°17'0 0.0
2014-Nov-24 13:31N 40°51' E 029°17'0 0.0
2014-Nov-24 12:31N 40°51' E 029°17'0 0.0
2014-Nov-24 11:31N 40°51' E 029°17'0 0.0
2014-Nov-24 10:31N 40°51' E 029°17'0 0.0
2014-Nov-24 09:31N 40°51' E 029°17'0 0.0
2014-Nov-24 08:19N 40°51' E 029°17'0 0.0
2014-Nov-24 07:31N 40°51' E 029°17'0 0.0
2014-Nov-24 06:25N 40°51' E 029°17'0 0.0
2014-Nov-24 05:31N 40°51' E 029°17'0 0.0
2014-Nov-24 04:19N 40°51' E 029°17'0 0.0
2014-Nov-24 03:31N 40°51' E 029°17'0 0.0
2014-Nov-24 02:31N 40°51' E 029°17'0 0.0
2014-Nov-24 01:31N 40°51' E 029°17'0 0.0
2014-Nov-24 00:31N 40°51' E 029°17'0 0.0
2014-Nov-23 23:31N 40°51' E 029°17'0 0.0
2014-Nov-23 22:25N 40°51' E 029°17'0 0.0
2014-Nov-23 21:31N 40°51' E 029°17'0 0.0
2014-Nov-23 20:25N 40°51' E 029°17'0 0.0
2014-Nov-23 19:25N 40°51' E 029°17'0 0.0
2014-Nov-23 18:31N 40°51' E 029°17'0 0.0
2014-Nov-23 17:31N 40°51' E 029°17'0 0.0
2014-Nov-23 16:19N 40°51' E 029°17'0 0.0
2014-Nov-23 15:13N 40°51' E 029°17'0 0.0
2014-Nov-23 14:31N 40°51' E 029°17'0 0.0
2014-Nov-23 13:25N 40°51' E 029°17'0 0.0
2014-Nov-23 12:25N 40°51' E 029°17'0 0.0
2014-Nov-23 11:31N 40°51' E 029°17'0 0.0
2014-Nov-23 10:31N 40°51' E 029°17'0 0.0
2014-Nov-23 09:25N 40°51' E 029°17'0 0.0
2014-Nov-23 08:13N 40°51' E 029°17'0 0.0
2014-Nov-23 07:31N 40°51' E 029°17'0 0.0
2014-Nov-23 06:31N 40°51' E 029°17'0 0.0
2014-Nov-23 05:25N 40°51' E 029°17'0 0.0
2014-Nov-23 04:31N 40°51' E 029°17'0 0.0
2014-Nov-23 03:31N 40°51' E 029°17'0 0.0
2014-Nov-23 02:31N 40°51' E 029°17'0 0.0
2014-Nov-23 01:25N 40°51' E 029°17'0 0.0
2014-Nov-23 00:19N 40°51' E 029°17'0 0.0
2014-Nov-22 23:25N 40°51' E 029°17'0 0.0
2014-Nov-22 22:31N 40°51' E 029°17'0 0.0
2014-Nov-22 21:25N 40°51' E 029°17'0 0.0
2014-Nov-22 20:31N 40°51' E 029°17'0 0.0
2014-Nov-22 19:19N 40°51' E 029°17'0 0.0
2014-Nov-22 18:31N 40°51' E 029°17'2 2.3
2014-Nov-22 17:33N 40°49' E 029°15'7 7.5
2014-Nov-22 16:33N 40°45' E 029°23'5 4.5
2014-Nov-22 15:27N 40°44' E 029°29'4 4.1
2014-Nov-22 14:33N 40°44' E 029°24'4 4.1
2014-Nov-22 13:33N 40°45' E 029°19'4 4.3
2014-Nov-22 12:33N 40°47' E 029°14'3 3.2
2014-Nov-22 11:34N 40°51' E 029°13'0 0.1
2014-Nov-22 10:33N 40°51' E 029°14'0 0.2
2014-Nov-22 09:33N 40°51' E 029°14'3 2.8
2014-Nov-22 08:33N 40°51' E 029°17'0 0.0
2014-Nov-22 07:33N 40°51' E 029°17'0 0.0
2014-Nov-22 06:25N 40°51' E 029°17'0 0.0
2014-Nov-22 05:31N 40°51' E 029°17'0 0.0
2014-Nov-22 04:31N 40°51' E 029°17'0 0.0
2014-Nov-22 03:31N 40°51' E 029°17'0 0.0
2014-Nov-22 02:31N 40°51' E 029°17'0 0.0
2014-Nov-22 01:31N 40°51' E 029°17'0 0.0
2014-Nov-22 00:25N 40°51' E 029°17'0 0.0
2014-Nov-21 23:31N 40°51' E 029°17'0 0.0
2014-Nov-21 22:31N 40°51' E 029°17'0 0.0
2014-Nov-21 21:19N 40°51' E 029°17'0 0.0
2014-Nov-21 20:19N 40°51' E 029°17'0 0.0
2014-Nov-21 19:31N 40°51' E 029°17'0 0.0
2014-Nov-21 18:31N 40°51' E 029°17'0 0.0
2014-Nov-21 17:31N 40°51' E 029°17'0 0.0
2014-Nov-21 16:31N 40°51' E 029°17'0 0.0
2014-Nov-21 15:25N 40°51' E 029°17'0 0.0
2014-Nov-21 14:33N 40°51' E 029°17'0 0.0
2014-Nov-21 13:33N 40°51' E 029°17'0 0.0
2014-Nov-21 12:33N 40°51' E 029°17'0 0.0
2014-Nov-21 11:33N 40°51' E 029°17'0 0.0
2014-Nov-21 10:33N 40°51' E 029°17'0 0.0
2014-Nov-21 09:33N 40°51' E 029°17'  
Track history (hours):
 
Tides and Currents Weather Stations Pressure Air Temp Water Temp Dewpoint Dewpoint Depression Visibility Wind Speed Wind Dir Waves Ship Positions

M/tug Gulf 2

Last reported at 2014-Nov-28 23:19 UTC. Time now 2014-Nov-29 00:06 UTC.
Position N 40°51' E 029°17'.

Length 23 m; draft 3.7 m.

Type: Tug. MMSI: 271002438.

Date/timePositionNaut miles runAvg speedWind from/ knotsBaromVisibWave heightAir tempDewpointWater temp
2014-Nov-28 23:19N 40°51' E 029°17'0 0.0
2014-Nov-28 22:31N 40°51' E 029°17'0 0.0
2014-Nov-28 21:25N 40°51' E 029°17'0 0.0
2014-Nov-28 20:31N 40°51' E 029°17'2 1.6
2014-Nov-28 19:33N 40°51' E 029°15'1 0.9
2014-Nov-28 18:34N 40°50' E 029°15'3 2.7
2014-Nov-28 17:34N 40°47' E 029°15'5 4.8
2014-Nov-28 16:33N 40°45' E 029°20'5 4.8
2014-Nov-28 15:33N 40°43' E 029°26'1 1.0
2014-Nov-28 14:33N 40°43' E 029°28'0 0.0
2014-Nov-28 13:32N 40°43' E 029°27'0 0.5
2014-Nov-28 12:33N 40°43' E 029°27'9 8.7
2014-Nov-28 11:33N 40°47' E 029°16'4 3.5
2014-Nov-28 10:24N 40°51' E 029°17'0 0.0
2014-Nov-28 09:30N 40°51' E 029°17'0 0.0
2014-Nov-28 08:30N 40°51' E 029°17'0 0.0
2014-Nov-28 07:30N 40°51' E 029°17'0 0.0
2014-Nov-28 06:30N 40°51' E 029°17'0 0.0
2014-Nov-28 05:30N 40°51' E 029°17'0 0.0
2014-Nov-28 04:30N 40°51' E 029°17'0 0.0
2014-Nov-28 03:30N 40°51' E 029°17'0 0.0
2014-Nov-28 02:30N 40°51' E 029°17'0 0.0
2014-Nov-28 01:30N 40°51' E 029°17'0 0.0
2014-Nov-28 00:18N 40°51' E 029°17'0 0.0
2014-Nov-27 23:30N 40°51' E 029°17'0 0.0
2014-Nov-27 22:30N 40°51' E 029°17'0 0.0
2014-Nov-27 21:30N 40°51' E 029°17'0 0.0
2014-Nov-27 20:30N 40°51' E 029°17'0 0.0
2014-Nov-27 19:30N 40°51' E 029°17'0 0.0
2014-Nov-27 18:24N 40°51' E 029°17'0 0.0
2014-Nov-27 17:30N 40°51' E 029°17'0 0.0
2014-Nov-27 16:18N 40°51' E 029°17'0 0.0
2014-Nov-27 15:34N 40°51' E 029°17'0 0.0
2014-Nov-27 14:34N 40°51' E 029°17'0 0.0
2014-Nov-27 13:34N 40°51' E 029°17'0 0.0
2014-Nov-27 12:33N 40°51' E 029°17'0 0.0
2014-Nov-27 11:33N 40°51' E 029°17'0 0.0
2014-Nov-27 10:34N 40°51' E 029°17'0 0.0
2014-Nov-27 09:33N 40°51' E 029°17'0 0.0
2014-Nov-27 08:34N 40°51' E 029°17'0 0.0
2014-Nov-27 07:30N 40°51' E 029°17'0 0.0
2014-Nov-27 06:30N 40°51' E 029°17'0 0.0
2014-Nov-27 05:33N 40°51' E 029°17'0 0.0
2014-Nov-27 04:30N 40°51' E 029°17'0 0.0
2014-Nov-27 03:30N 40°51' E 029°17'0 0.0
2014-Nov-27 02:30N 40°51' E 029°17'0 0.0
2014-Nov-27 01:30N 40°51' E 029°17'0 0.0
2014-Nov-27 00:30N 40°51' E 029°17'0 0.0
2014-Nov-26 23:30N 40°51' E 029°17'0 0.0
2014-Nov-26 22:30N 40°51' E 029°17'0 0.0
2014-Nov-26 21:30N 40°51' E 029°17'0 0.0
2014-Nov-26 20:24N 40°51' E 029°17'0 0.0
2014-Nov-26 19:30N 40°51' E 029°17'0 0.0
2014-Nov-26 18:33N 40°51' E 029°17'0 0.0
2014-Nov-26 17:27N 40°51' E 029°17'0 0.0
2014-Nov-26 16:33N 40°51' E 029°17'0 0.0
2014-Nov-26 15:24N 40°51' E 029°17'0 0.0
2014-Nov-26 14:30N 40°51' E 029°17'0 0.0
2014-Nov-26 13:24N 40°51' E 029°17'0 0.0
2014-Nov-26 12:30N 40°51' E 029°17'0 0.0
2014-Nov-26 11:25N 40°51' E 029°17'0 0.0
2014-Nov-26 10:30N 40°51' E 029°17'0 0.0
2014-Nov-26 09:25N 40°51' E 029°17'0 0.0
2014-Nov-26 08:24N 40°51' E 029°17'0 0.0
2014-Nov-26 07:31N 40°51' E 029°17'0 0.0
2014-Nov-26 06:31N 40°51' E 029°17'0 0.0
2014-Nov-26 05:31N 40°51' E 029°17'0 0.0
2014-Nov-26 04:25N 40°51' E 029°17'0 0.0
2014-Nov-26 03:31N 40°51' E 029°17'0 0.0
2014-Nov-26 02:25N 40°51' E 029°17'0 0.0
2014-Nov-26 01:25N 40°51' E 029°17'0 0.0
2014-Nov-26 00:25N 40°51' E 029°17'0 0.0
2014-Nov-25 23:31N 40°51' E 029°17'0 0.0
2014-Nov-25 22:31N 40°51' E 029°17'0 0.0
2014-Nov-25 21:31N 40°51' E 029°17'0 0.0
2014-Nov-25 20:31N 40°51' E 029°17'0 0.0
2014-Nov-25 19:31N 40°51' E 029°17'0 0.0
2014-Nov-25 18:19N 40°51' E 029°17'0 0.0
2014-Nov-25 17:25N 40°51' E 029°17'0 0.0
2014-Nov-25 16:31N 40°51' E 029°17'0 0.0
2014-Nov-25 15:31N 40°51' E 029°17'0 0.0
2014-Nov-25 14:31N 40°51' E 029°17'0 0.0
2014-Nov-25 13:25N 40°51' E 029°17'0 0.0
2014-Nov-25 12:25N 40°51' E 029°17'0 0.0
2014-Nov-25 11:31N 40°51' E 029°17'0 0.0
2014-Nov-25 10:25N 40°51' E 029°17'0 0.0
2014-Nov-25 09:25N 40°51' E 029°17'0 0.0
2014-Nov-25 08:31N 40°51' E 029°17'0 0.0
2014-Nov-25 07:31N 40°51' E 029°17'0 0.0
2014-Nov-25 06:25N 40°51' E 029°17'0 0.0
2014-Nov-25 05:25N 40°51' E 029°17'0 0.0
2014-Nov-25 04:31N 40°51' E 029°17'0 0.0
2014-Nov-25 03:31N 40°51' E 029°17'0 0.0
2014-Nov-25 02:25N 40°51' E 029°17'0 0.0
2014-Nov-25 01:31N 40°51' E 029°17'0 0.0
2014-Nov-25 00:31N 40°51' E 029°17'0 0.0
2014-Nov-24 23:19N 40°51' E 029°17'0 0.0
2014-Nov-24 22:25N 40°51' E 029°17'0 0.0
2014-Nov-24 21:31N 40°51' E 029°17'0 0.0
2014-Nov-24 20:31N 40°51' E 029°17'0 0.0
2014-Nov-24 19:31N 40°51' E 029°17'0 0.0
2014-Nov-24 18:25N 40°51' E 029°17'0 0.0
2014-Nov-24 17:31N 40°51' E 029°17'0 0.0
2014-Nov-24 16:19N 40°51' E 029°17'0 0.0
2014-Nov-24 15:31N 40°51' E 029°17'0 0.0
2014-Nov-24 14:25N 40°51' E 029°17'0 0.0
2014-Nov-24 13:31N 40°51' E 029°17'0 0.0
2014-Nov-24 12:31N 40°51' E 029°17'0 0.0
2014-Nov-24 11:31N 40°51' E 029°17'0 0.0
2014-Nov-24 10:31N 40°51' E 029°17'0 0.0
2014-Nov-24 09:31N 40°51' E 029°17'0 0.0
2014-Nov-24 08:19N 40°51' E 029°17'0 0.0
2014-Nov-24 07:31N 40°51' E 029°17'0 0.0
2014-Nov-24 06:25N 40°51' E 029°17'0 0.0
2014-Nov-24 05:31N 40°51' E 029°17'0 0.0
2014-Nov-24 04:19N 40°51' E 029°17'0 0.0
2014-Nov-24 03:31N 40°51' E 029°17'0 0.0
2014-Nov-24 02:31N 40°51' E 029°17'0 0.0
2014-Nov-24 01:31N 40°51' E 029°17'0 0.0
2014-Nov-24 00:31N 40°51' E 029°17'0 0.0
2014-Nov-23 23:31N 40°51' E 029°17'0 0.0
2014-Nov-23 22:25N 40°51' E 029°17'0 0.0
2014-Nov-23 21:31N 40°51' E 029°17'0 0.0
2014-Nov-23 20:25N 40°51' E 029°17'0 0.0
2014-Nov-23 19:25N 40°51' E 029°17'0 0.0
2014-Nov-23 18:31N 40°51' E 029°17'0 0.0
2014-Nov-23 17:31N 40°51' E 029°17'0 0.0
2014-Nov-23 16:19N 40°51' E 029°17'0 0.0
2014-Nov-23 15:13N 40°51' E 029°17'0 0.0
2014-Nov-23 14:31N 40°51' E 029°17'0 0.0
2014-Nov-23 13:25N 40°51' E 029°17'0 0.0
2014-Nov-23 12:25N 40°51' E 029°17'0 0.0
2014-Nov-23 11:31N 40°51' E 029°17'0 0.0
2014-Nov-23 10:31N 40°51' E 029°17'0 0.0
2014-Nov-23 09:25N 40°51' E 029°17'0 0.0
2014-Nov-23 08:13N 40°51' E 029°17'0 0.0
2014-Nov-23 07:31N 40°51' E 029°17'0 0.0
2014-Nov-23 06:31N 40°51' E 029°17'0 0.0
2014-Nov-23 05:25N 40°51' E 029°17'0 0.0
2014-Nov-23 04:31N 40°51' E 029°17'0 0.0
2014-Nov-23 03:31N 40°51' E 029°17'0 0.0
2014-Nov-23 02:31N 40°51' E 029°17'0 0.0
2014-Nov-23 01:25N 40°51' E 029°17'0 0.0
2014-Nov-23 00:19N 40°51' E 029°17'0 0.0
2014-Nov-22 23:25N 40°51' E 029°17'0 0.0
2014-Nov-22 22:31N 40°51' E 029°17'0 0.0
2014-Nov-22 21:25N 40°51' E 029°17'0 0.0
2014-Nov-22 20:31N 40°51' E 029°17'0 0.0
2014-Nov-22 19:19N 40°51' E 029°17'0 0.0
2014-Nov-22 18:31N 40°51' E 029°17'2 2.3
2014-Nov-22 17:33N 40°49' E 029°15'7 7.5
2014-Nov-22 16:33N 40°45' E 029°23'5 4.5
2014-Nov-22 15:27N 40°44' E 029°29'4 4.1
2014-Nov-22 14:33N 40°44' E 029°24'4 4.1
2014-Nov-22 13:33N 40°45' E 029°19'4 4.3
2014-Nov-22 12:33N 40°47' E 029°14'3 3.2
2014-Nov-22 11:34N 40°51' E 029°13'0 0.1
2014-Nov-22 10:33N 40°51' E 029°14'0 0.2
2014-Nov-22 09:33N 40°51' E 029°14'3 2.8
2014-Nov-22 08:33N 40°51' E 029°17'0 0.0
2014-Nov-22 07:33N 40°51' E 029°17'0 0.0
2014-Nov-22 06:25N 40°51' E 029°17'0 0.0
2014-Nov-22 05:31N 40°51' E 029°17'0 0.0
2014-Nov-22 04:31N 40°51' E 029°17'0 0.0
2014-Nov-22 03:31N 40°51' E 029°17'0 0.0
2014-Nov-22 02:31N 40°51' E 029°17'0 0.0
2014-Nov-22 01:31N 40°51' E 029°17'0 0.0
2014-Nov-22 00:25N 40°51' E 029°17'0 0.0
2014-Nov-21 23:31N 40°51' E 029°17'0 0.0
2014-Nov-21 22:31N 40°51' E 029°17'0 0.0
2014-Nov-21 21:19N 40°51' E 029°17'0 0.0
2014-Nov-21 20:19N 40°51' E 029°17'0 0.0
2014-Nov-21 19:31N 40°51' E 029°17'0 0.0
2014-Nov-21 18:31N 40°51' E 029°17'0 0.0
2014-Nov-21 17:31N 40°51' E 029°17'0 0.0
2014-Nov-21 16:31N 40°51' E 029°17'0 0.0
2014-Nov-21 15:25N 40°51' E 029°17'0 0.0
2014-Nov-21 14:33N 40°51' E 029°17'0 0.0
2014-Nov-21 13:33N 40°51' E 029°17'0 0.0
2014-Nov-21 12:33N 40°51' E 029°17'0 0.0
2014-Nov-21 11:33N 40°51' E 029°17'0 0.0
2014-Nov-21 10:33N 40°51' E 029°17'0 0.0
2014-Nov-21 09:33N 40°51' E 029°17'  

Dump ship's entire track history